Terminal Aerodrome Forecast
Issued by NWS

Home | Current Version | Previous Version | Text Only | Print | Product List | Glossary On
Versions: 1 2 3 4 5 6 7 8 9 10 11 12 13 14 15 16 17 18 19 20 21 22 23 24 25 26 27 28 29 30
000
FTUS44 KOUN 270525
TAFHBR
TAF
KHBR 270525Z 2706/2806 02017G26KT 6SM BR SCT008 OVC015
     FM270900 04018G28KT 4SM RA BR OVC012
      TEMPO 2709/2712 2SM -TSRA BR OVC007CB
     FM272000 03018G28KT 2SM RA BR OVC009=

USA.gov is the U.S. government's official web portal to all federal, state and local government web resources and services.